星链-34177 (STARLINK-34177)

导读

STARLINK-34177是美国星链计划中的一颗卫星,于2025年5月28日发射升空。星链项目旨在构建全球卫星互联网星座,为全球偏远地区、海洋等网络覆盖盲区提供高速宽带服务。该卫星加入后,进一步扩大了星链星座的规模,提升了星座的服务覆盖能力与网络性能,推动全球互联基础设施的建设。

Basic Information
目录编号:
64170
目录名称:
STARLINK-34177
国际标识:
2025-113A
轨道中心:
EARTH
卫星名称:
星链-34177
卫星全名:
星链-34177 (STARLINK-34177)
卫星状态:
在轨 (已飞行464 天)
发射日期:
2025-05-28 UTC
国别 :
美国 (US)
星等 :
--
Orbit Information
数据来源 国际轨道数据
星历时间: 2026-09-04T04:23:22+0800
16小时前
查看轨道信息
半长轴: 6848.731km
偏心率: 0.0001236
轨道倾角: 53.161°
近地点辐角 101.446°
升交点赤经 342.083°
平近点角 258.668°
近地点: 469.747km
远地点: 471.441km
周期: 94.010分钟
每日圈数: 15.317493
Detailed Information
固有亮度:
5
最大亮度:
2.5
卫星平台:
Starlink V1.0
覆盖范围:
全球
运营商:
太空探索技术公司
运营商所在国:
美国
制造商(研发单位):
太空探索技术公司
制造商所在国:
美国
使用方式:
暂无
Satellite Introduction
Starlink 计划是 SpaceX 推出的全球卫星互联网项目,通过发射低轨道卫星,为全球尤其是偏远地区提供高速、低延迟的互联网服务。自 2019 年起,Starlink 已部署数千颗卫星,旨在缩小全球数字鸿沟,推动互联网普及。该项目还为军事、航空等行业提供通信支持,带来广泛经济效益。
2D Orbit Map
3D Orbit Map
Orbit Altitude Analysis Chart
Orbit Inclination Analysis Chart
Orbit Comprehensive Analysis Chart
View Comprehensive Chart
Conjunction Data List
Event ID Objects TCA Miss Dist (km) Collision Risk Probability Collision Risk Index (CRI) Action
CDM_260905-193804-737806-417021
2026-09-05T
19:38:46+0000
0.532 km
远距离
1.184902E-4 高风险 0.76
CDM_260905-181404-855706-417021
2026-09-05T
18:14:19+0000
0.789 km
远距离
2.325884E-5 中风险 0.62
CDM_260905-155605-255406-417021
2026-09-05T
15:56:25+0000
0.940 km
远距离
1.968857E-5 中风险 0.61
CDM_260905-123504-737806-417021
2026-09-05T
12:35:58+0000
1.016 km
极远距离
1.606981E-5 中风险 0.59
CDM_260906-072606-029806-417021
2026-09-06T
07:26:56+0000
0.894 km
远距离
1.600128E-5 中风险 0.59
CDM_260904-193906-417006-431221
2026-09-04T
19:39:02+0000
1.183 km
极远距离
1.301607E-5 中风险 0.57
CDM_260905-102705-255406-417022
2026-09-05T
10:27:35+0000
1.348 km
极远距离
5.705515E-6 低风险 0.5
CDM_260906-094706-029806-417021
2026-09-06T
09:47:52+0000
1.288 km
极远距离
4.61422E-6 低风险 0.48
CDM_260905-203504-855706-417021
2026-09-05T
20:35:15+0000
1.642 km
极远距离
2.067082E-6 低风险 0.41
CDM_260905-193806-417006-802521
2026-09-05T
19:38:41+0000
2.838 km
极远距离
1.385245E-6 低风险 0.38